Wind_Speed
19 18 17 16 16 16 17 19 21 23 25 24 24 24 24 23 24 22 19 16 16 16 17 18 20 21 20 18 17 17 18 19 20 21 24 26 26 25 26 27 28 30
17 16 16 16 15 16 18 20 22 24 25 24 23 23 23 23 23 22 19 17 17 17 17 18 20 21 22 20 18 17 18 19 19 21 23 25 25 26 26 26 27 29
16 16 15 15 15 16 18 20 22 23 24 23 22 21 22 22 23 22 20 18 18 19 19 20 21 22 23 22 20 19 19 19 19 21 24 25 26 26 25 25 25 27
16 15 15 15 15 16 17 18 19 20 21 22 21 21 20 21 22 22 21 20 20 21 22 22 23 24 26 24 22 21 21 21 21 23 25 26 26 25 25 25 25 27
16 15 14 14 14 15 16 16 17 18 19 19 20 20 20 21 22 22 21 21 21 22 23 23 24 26 27 26 25 24 22 21 22 23 25 25 25 26 26 26 27 29
15 14 14 14 14 14 15 15 16 17 18 19 19 19 20 20 21 22 22 22 22 22 23 24 25 26 25 25 25 24 23 22 21 23 25 25 24 26 26 27 29 30
14 13 13 13 14 14 15 16 17 18 19 20 20 20 20 20 20 22 22 23 23 23 24 25 26 27 25 24 24 23 23 23 23 24 26 25 25 26 27 29 31 29
13 14 14 14 15 15 17 18 19 19 20 21 22 21 21 21 21 22 23 24 25 25 25 26 27 28 27 24 24 23 21 22 24 26 27 26 26 27 27 29 31 30
14 15 15 15 16 16 18 19 20 21 22 23 24 23 23 22 21 22 23 25 26 26 26 28 29 28 25 24 25 25 22 21 23 26 28 28 28 28 28 30 32 31
16 16 17 17 17 18 19 20 21 22 23 24 25 25 24 23 22 22 23 24 27 27 27 28 27 24 20 20 24 25 22 21 22 24 25 27 28 29 29 30 33 33
17 18 18 19 19 19 20 21 22 23 24 24 25 25 24 23 23 23 23 24 26 27 27 27 26 22 18 20 24 23 21 20 21 23 24 25 27 29 29 30 31 32
19 19 20 20 21 21 21 22 22 23 24 24 24 24 24 24 24 24 24 25 25 26 27 27 26 25 23 22 24 24 22 21 20 22 24 24 25 27 29 29 29 29
20 21 22 22 22 22 22 22 22 23 24 24 24 24 24 25 26 26 26 27 26 27 27 27 27 28 27 25 25 25 25 24 21 21 23 23 24 25 27 28 28 28
21 22 23 23 23 23 22 22 22 23 24 25 26 26 27 28 29 30 29 29 29 28 29 28 28 28 28 27 26 26 27 27 25 23 23 23 22 22 23 27 29 29
23 24 23 23 23 23 23 24 24 25 25 26 27 29 30 30 31 33 33 32 31 30 30 30 30 29 28 28 29 28 27 27 27 26 25 24 22 21 22 26 29 31
24 24 24 24 24 24 25 26 27 28 29 30 30 32 33 34 34 35 36 35 33 32 31 31 31 31 29 28 30 30 29 28 28 28 27 26 24 23 23 25 28 31
24 24 25 25 26 27 28 29 30 31 32 33 34 35 36 37 37 36 37 38 36 34 32 32 32 32 30 29 30 31 31 30 30 29 28 26 26 26 24 25 26 28
24 25 25 26 27 28 30 31 32 33 34 35 35 36 36 37 37 35 34 36 36 34 32 31 31 32 31 30 30 31 32 32 31 30 28 26 28 28 25 25 26 28
24 25 26 27 27 28 29 30 31 31 32 33 33 33 33 33 35 34 33 33 34 33 31 30 31 31 31 30 30 30 31 31 32 31 30 28 29 29 28 27 28 28
22 23 23 24 25 26 26 27 27 28 29 30 30 31 31 31 32 33 32 31 32 32 31 30 30 30 30 31 30 30 31 31 32 33 32 31 30 30 31 30 29 29
19 20 20 21 22 23 24 25 26 26 27 28 29 29 30 30 30 31 31 30 30 31 32 31 30 30 30 31 31 31 31 31 32 33 34 34 31 31 32 31 30 29
17 18 19 20 21 22 23 24 24 25 26 27 28 28 29 28 29 29 30 29 28 29 30 31 30 30 31 31 32 32 32 32 33 33 34 33 31 30 31 32 31 29
17 18 19 20 21 21 22 23 24 25 26 26 27 28 29 28 28 28 28 28 26 25 27 28 29 30 30 31 32 32 32 32 33 33 33 32 31 30 31 32 32 30
17 18 19 20 21 22 22 23 24 24 25 27 27 28 29 29 29 28 27 27 26 25 24 26 27 28 29 30 31 31 30 29 31 32 32 31 30 29 30 31 31 31
17 18 19 20 20 21 22 22 23 23 24 26 27 28 28 29 29 28 27 27 27 26 24 24 24 25 25 27 28 29 29 27 27 28 29 28 28 29 30 30 30 29
18 18 19 19 20 20 21 22 22 23 23 24 26 27 28 28 28 28 28 27 27 27 26 24 24 23 23 24 25 26 26 25 23 23 23 22 24 27 28 28 28 28
Wind_Direction
310 310 308 305 304 305 307 311 314 314 315 319 323 323 323 324 322 318 313 305 296 294 293 293 295 297 294 284 278 272 264 260 253 243 238 237 238 240 241 243 244 242
310 311 310 307 305 306 307 309 310 310 313 317 320 322 321 321 320 316 309 302 297 293 292 292 294 295 291 284 278 273 266 264 258 248 243 241 240 242 242 244 247 242
308 309 309 306 303 303 303 304 306 308 311 315 317 318 319 318 318 315 307 298 294 292 289 290 291 291 291 286 279 274 268 263 258 250 247 245 244 244 243 243 243 237
303 305 304 303 300 300 301 304 308 311 313 316 317 316 316 314 314 315 310 302 296 292 290 291 291 291 293 293 285 276 269 264 259 252 248 248 246 244 242 240 237 233
300 302 302 301 301 303 306 309 314 317 319 321 322 320 316 313 312 313 312 308 304 299 295 294 292 291 295 301 297 287 277 269 265 260 254 251 248 245 244 240 236 234
295 297 299 301 304 306 310 314 317 320 322 324 326 324 320 316 312 311 310 309 308 306 301 295 291 290 292 297 299 298 293 282 275 270 265 257 251 247 244 239 235 234
289 293 296 301 305 308 311 313 316 318 320 322 324 324 322 319 315 311 309 307 306 305 304 300 293 288 289 292 296 299 298 292 282 274 269 262 255 250 244 238 235 233
288 291 295 302 306 309 311 312 314 315 317 318 319 319 319 318 317 313 310 307 304 304 308 307 300 291 286 289 294 294 295 296 290 280 272 265 259 254 248 244 239 234
290 292 295 300 304 307 309 310 311 312 314 315 316 315 314 313 312 312 310 307 304 305 309 311 312 307 294 288 293 295 295 299 298 290 282 273 265 258 253 250 247 240
290 292 296 299 301 304 306 307 308 310 311 312 313 313 312 309 308 307 307 307 305 306 305 307 314 320 309 294 294 296 298 301 300 297 291 281 272 265 257 251 248 244
295 297 300 301 302 304 304 305 306 306 307 308 309 310 310 310 309 307 305 305 306 306 305 304 306 311 311 303 296 294 296 298 297 297 297 290 282 272 263 255 249 246
300 301 303 303 303 304 304 304 304 304 304 305 305 306 306 308 309 309 309 308 307 306 305 304 301 298 298 297 295 293 291 289 289 292 294 295 290 277 265 259 254 250
300 301 302 302 302 302 302 301 301 301 301 301 301 301 301 303 305 306 308 308 308 307 305 302 298 293 290 288 290 293 293 289 284 284 288 293 294 285 270 262 259 255
299 299 299 299 299 299 299 299 299 299 299 299 298 298 298 299 300 301 303 305 306 306 304 301 296 292 289 286 283 285 289 290 286 282 282 285 291 289 277 266 262 258
300 299 298 298 297 296 297 297 298 298 298 298 298 297 298 298 299 300 301 301 302 302 302 299 294 291 289 286 281 277 279 282 282 279 278 279 283 284 279 272 267 261
300 299 299 299 298 298 299 299 300 300 300 301 300 300 300 300 300 299 299 299 299 299 298 296 292 289 287 284 281 277 274 274 275 274 273 274 276 274 274 276 272 265
301 300 300 301 301 302 302 302 302 302 303 303 303 303 302 301 301 300 298 297 297 296 295 292 289 287 285 282 280 278 276 273 272 271 270 270 270 268 269 273 273 267
303 303 304 304 303 304 304 303 303 303 304 304 304 304 304 303 303 303 301 298 298 297 294 290 287 285 283 281 278 276 276 274 272 270 268 267 267 267 267 269 272 269
307 307 307 307 306 305 305 305 305 304 305 306 306 307 308 308 308 309 307 304 301 300 296 291 287 284 282 280 277 275 274 273 272 270 268 265 265 266 266 265 267 269
310 310 310 310 309 309 309 308 308 308 308 309 310 311 311 311 311 311 312 311 307 305 302 296 290 286 282 280 277 275 274 273 272 271 269 267 265 265 265 264 263 266
316 315 315 315 313 313 313 312 311 311 310 310 311 312 313 314 313 313 314 315 313 310 307 303 298 292 287 283 279 276 275 273 272 271 269 267 265 264 265 265 264 264
319 318 319 318 316 316 315 314 313 312 311 311 312 314 315 315 315 314 314 315 315 311 309 307 304 299 294 289 285 281 278 276 274 272 270 267 263 261 263 265 265 264
324 322 321 319 318 318 317 317 316 315 314 313 313 314 316 317 317 316 315 317 317 314 311 309 307 304 301 297 292 288 283 280 276 274 272 268 261 256 259 263 265 265
333 330 329 327 324 323 322 321 319 319 318 317 317 318 319 320 321 320 319 319 319 319 315 312 311 309 307 304 301 297 291 286 280 276 274 271 262 254 255 262 265 265
346 341 337 334 331 328 327 325 323 323 322 321 321 321 323 325 325 324 323 322 321 322 321 317 314 311 310 310 308 306 302 296 288 282 278 274 266 256 254 260 264 263
352 349 345 341 337 333 331 329 326 324 324 324 324 325 327 330 330 329 327 326 325 325 324 322 318 314 312 313 312 311 309 305 299 290 280 274 269 261 257 262 266 265
Height
3134 3133 3132 3132 3131 3130 3129 3128 3126 3125 3124 3124 3123 3122 3120 3119 3117 3116 3115 3115 3115 3115 3114 3113 3112 3111 3110 3109 3108 3107 3107 3107 3107 3107 3109 3110 3112 3113 3115 3116 3117 3119
3132 3132 3131 3130 3129 3128 3127 3126 3125 3123 3123 3122 3122 3120 3118 3117 3116 3115 3114 3113 3113 3112 3112 3111 3110 3109 3108 3107 3105 3105 3105 3105 3105 3106 3106 3108 3110 3111 3112 3114 3115 3116
3131 3130 3130 3129 3128 3127 3126 3125 3124 3122 3121 3121 3120 3119 3117 3115 3114 3113 3112 3112 3111 3110 3110 3109 3108 3107 3107 3106 3104 3103 3103 3103 3103 3104 3105 3106 3107 3109 3110 3111 3112 3112
3130 3129 3128 3128 3127 3126 3125 3123 3122 3121 3120 3119 3118 3117 3116 3114 3112 3111 3110 3109 3109 3108 3108 3108 3107 3106 3106 3105 3103 3102 3101 3101 3101 3102 3102 3103 3104 3105 3106 3108 3109 3110
3128 3128 3127 3126 3125 3124 3123 3122 3120 3119 3118 3117 3116 3115 3114 3113 3111 3109 3108 3107 3107 3106 3106 3105 3105 3104 3104 3104 3102 3101 3099 3099 3099 3099 3099 3100 3101 3102 3103 3104 3106 3107
3127 3126 3125 3125 3124 3123 3121 3120 3119 3118 3116 3115 3115 3113 3112 3111 3109 3108 3107 3105 3104 3103 3103 3102 3101 3101 3101 3100 3099 3099 3098 3097 3097 3096 3096 3097 3098 3099 3100 3101 3102 3104
3125 3125 3124 3123 3122 3121 3120 3119 3117 3116 3115 3114 3113 3112 3110 3109 3108 3106 3105 3103 3102 3101 3101 3100 3098 3097 3097 3096 3096 3096 3095 3095 3095 3094 3093 3093 3094 3096 3097 3098 3099 3101
3124 3123 3122 3122 3121 3119 3118 3117 3116 3115 3113 3112 3111 3110 3108 3107 3106 3104 3103 3101 3100 3099 3099 3097 3096 3095 3094 3094 3094 3093 3093 3093 3092 3091 3090 3090 3091 3092 3094 3095 3096 3097
3122 3122 3121 3120 3119 3118 3116 3115 3114 3113 3112 3110 3109 3108 3106 3105 3104 3103 3101 3099 3098 3097 3096 3095 3094 3093 3092 3092 3092 3091 3090 3090 3089 3088 3088 3087 3088 3089 3090 3091 3092 3094
3121 3120 3119 3118 3117 3116 3115 3113 3112 3111 3109 3108 3107 3105 3104 3103 3102 3101 3099 3097 3096 3095 3094 3093 3092 3091 3090 3090 3089 3089 3088 3087 3086 3085 3085 3085 3085 3085 3086 3088 3089 3090
3119 3118 3117 3116 3115 3114 3112 3111 3110 3108 3107 3106 3104 3103 3102 3100 3099 3098 3097 3096 3095 3093 3092 3091 3090 3090 3089 3087 3086 3086 3085 3084 3083 3082 3082 3082 3082 3082 3083 3084 3085 3086
3116 3115 3114 3113 3112 3111 3110 3109 3108 3106 3105 3103 3102 3101 3099 3098 3097 3096 3095 3094 3093 3091 3090 3089 3088 3087 3086 3084 3082 3082 3081 3080 3080 3079 3078 3078 3078 3078 3079 3080 3081 3082
3115 3113 3112 3111 3110 3109 3108 3107 3105 3104 3103 3101 3100 3098 3097 3096 3094 3093 3092 3092 3090 3089 3087 3086 3085 3083 3081 3080 3078 3078 3078 3077 3076 3076 3075 3075 3075 3075 3076 3077 3078 3079
3113 3111 3110 3109 3108 3106 3105 3104 3103 3102 3100 3099 3097 3095 3094 3093 3091 3090 3089 3088 3088 3086 3084 3083 3081 3079 3078 3077 3075 3075 3075 3074 3074 3073 3073 3073 3073 3073 3073 3074 3075 3076
3110 3109 3108 3107 3105 3104 3103 3101 3100 3099 3097 3096 3094 3092 3091 3090 3088 3086 3085 3085 3084 3083 3081 3079 3077 3075 3075 3074 3072 3071 3071 3071 3071 3071 3070 3070 3070 3071 3071 3071 3072 3073
3108 3106 3105 3104 3102 3101 3100 3098 3097 3095 3094 3092 3091 3089 3087 3086 3084 3083 3081 3080 3079 3078 3077 3075 3073 3072 3071 3071 3069 3068 3067 3067 3067 3067 3067 3067 3067 3068 3068 3068 3069 3069
3105 3104 3102 3101 3100 3098 3097 3095 3094 3092 3090 3088 3087 3085 3083 3081 3080 3079 3077 3075 3074 3073 3072 3071 3069 3067 3067 3067 3065 3064 3063 3063 3063 3063 3063 3064 3064 3064 3065 3065 3065 3065
3103 3101 3100 3098 3097 3095 3094 3092 3090 3089 3087 3085 3083 3081 3079 3077 3075 3074 3073 3071 3069 3068 3067 3065 3064 3063 3062 3062 3061 3060 3059 3059 3058 3058 3059 3060 3060 3060 3062 3062 3062 3062
3100 3099 3097 3096 3094 3092 3091 3089 3087 3085 3083 3081 3080 3078 3076 3074 3071 3069 3068 3067 3065 3063 3062 3061 3059 3058 3057 3057 3056 3056 3055 3055 3054 3054 3054 3056 3056 3057 3058 3059 3059 3058
3098 3096 3095 3093 3092 3090 3088 3087 3085 3083 3081 3079 3077 3075 3073 3071 3069 3066 3064 3063 3061 3059 3057 3056 3054 3053 3052 3051 3051 3051 3051 3050 3050 3050 3050 3051 3052 3053 3053 3054 3055 3055
3096 3095 3093 3092 3090 3088 3086 3084 3082 3080 3079 3076 3074 3072 3070 3068 3066 3063 3061 3059 3058 3056 3053 3052 3050 3049 3047 3047 3046 3046 3046 3046 3046 3045 3046 3046 3048 3049 3049 3050 3050 3052
3094 3093 3092 3090 3088 3086 3085 3082 3080 3078 3076 3074 3072 3070 3068 3065 3063 3061 3058 3056 3055 3053 3050 3048 3046 3045 3043 3042 3041 3041 3041 3041 3041 3041 3041 3042 3043 3045 3045 3045 3046 3048
3093 3092 3090 3088 3087 3085 3083 3081 3079 3077 3074 3072 3070 3068 3065 3063 3061 3058 3056 3054 3052 3050 3048 3046 3043 3042 3040 3038 3037 3036 3036 3036 3036 3036 3036 3037 3038 3040 3041 3041 3042 3043
3092 3090 3089 3087 3085 3083 3081 3079 3077 3075 3073 3070 3068 3066 3063 3061 3059 3056 3054 3051 3049 3047 3045 3043 3041 3039 3037 3035 3033 3031 3031 3031 3031 3031 3031 3032 3033 3034 3036 3037 3038 3039
3091 3089 3087 3085 3083 3081 3080 3078 3076 3074 3072 3069 3067 3064 3062 3059 3057 3054 3052 3050 3047 3045 3043 3041 3039 3036 3034 3032 3030 3028 3027 3027 3027 3026 3027 3027 3028 3030 3031 3033 3035 3036
3090 3088 3086 3084 3082 3080 3079 3077 3075 3073 3071 3068 3066 3063 3061 3058 3055 3052 3050 3048 3045 3043 3041 3039 3037 3034 3032 3030 3028 3026 3025 3024 3023 3023 3023 3024 3025 3025 3026 3028 3030 3031